RYR1JG LIME-EGPH

Flight info

Callsign RYR1JG
Flight time 2h 26m
Altitude 38000
Route ARLES DCT PUNSA DCT IBODI DCT GOTED DCT TRO DCT CLM DCT KOPOR DCT VESAN DCT RATUK DCT SOVAT L613 LEHOC DCT ABEVI DCT INPIP
Aircraft B738/M-SDE3FGILRWY/SB1

Departure

Time 2026-04-20 18:02
Airport Il Caravaggio International Airport (LIME)

Arrival

Time 2026-04-20 20:28
Airport Edinburgh Airport (EGPH)
Time Latitude Longitude Altitude Speed Heading
2026-04-20 17:36 45.66755 9.69507 786 ft 0 kts 193°
2026-04-20 17:53 45.66770 9.69511 786 ft 4 kts 191°
2026-04-20 17:54 45.66796 9.69516 786 ft 4 kts 180°
2026-04-20 17:54 45.66822 9.69512 786 ft 4 kts 153°
2026-04-20 17:54 45.66836 9.69494 786 ft 1 kts 105°
2026-04-20 17:56 45.66836 9.69496 786 ft 1 kts 105°
2026-04-20 17:56 45.66826 9.69548 785 ft 10 kts 105°
2026-04-20 17:56 45.66801 9.69681 784 ft 18 kts 104°
2026-04-20 17:57 45.66766 9.69874 783 ft 21 kts 104°
2026-04-20 17:57 45.66730 9.70069 781 ft 20 kts 105°
2026-04-20 17:57 45.66695 9.70259 780 ft 20 kts 104°
2026-04-20 17:57 45.66659 9.70453 778 ft 20 kts 105°
2026-04-20 17:58 45.66624 9.70642 777 ft 19 kts 104°
2026-04-20 17:58 45.66587 9.70844 775 ft 23 kts 105°
2026-04-20 17:58 45.66544 9.71060 773 ft 22 kts 109°
2026-04-20 17:58 45.66493 9.71266 772 ft 22 kts 105°
2026-04-20 17:59 45.66454 9.71471 770 ft 21 kts 104°
2026-04-20 17:59 45.66448 9.71672 768 ft 20 kts 73°
2026-04-20 17:59 45.66469 9.71865 766 ft 20 kts 97°
2026-04-20 17:59 45.66438 9.72051 764 ft 19 kts 104°
2026-04-20 18:00 45.66406 9.72231 763 ft 18 kts 104°
2026-04-20 18:00 45.66376 9.72397 762 ft 10 kts 104°
2026-04-20 18:00 45.66410 9.72462 762 ft 10 kts 359°
2026-04-20 18:00 45.66463 9.72404 761 ft 12 kts 295°
2026-04-20 18:01 45.66514 9.72142 764 ft 55 kts 285°
2026-04-20 18:01 45.66672 9.71297 770 ft 119 kts 285°
2026-04-20 18:01 45.66936 9.69896 796 ft 169 kts 285°
2026-04-20 18:01 45.67287 9.68236 1359 ft 171 kts 288°
2026-04-20 18:02 45.67622 9.66664 2237 ft 162 kts 282°
2026-04-20 18:02 45.67657 9.65026 2754 ft 170 kts 263°
2026-04-20 18:02 45.67402 9.63236 3022 ft 198 kts 244°
2026-04-20 18:02 45.66795 9.61454 3576 ft 203 kts 258°
2026-04-20 18:03 45.66711 9.59363 3855 ft 222 kts 269°
2026-04-20 18:03 45.66654 9.57124 4310 ft 228 kts 268°
2026-04-20 18:03 45.66586 9.54848 4760 ft 231 kts 268°
2026-04-20 18:03 45.66518 9.52534 5337 ft 235 kts 268°
2026-04-20 18:04 45.66449 9.50165 5807 ft 242 kts 268°
2026-04-20 18:04 45.66380 9.47709 6249 ft 253 kts 268°
2026-04-20 18:04 45.66309 9.45130 6703 ft 265 kts 268°
2026-04-20 18:04 45.66234 9.42487 7146 ft 272 kts 268°
2026-04-20 18:05 45.66079 9.37069 7721 ft 273 kts 268°
2026-04-20 18:05 45.65976 9.34355 8099 ft 274 kts 267°
2026-04-20 18:05 45.65861 9.31629 8480 ft 274 kts 267°
2026-04-20 18:06 45.65745 9.28911 8866 ft 275 kts 268°
2026-04-20 18:06 45.65628 9.26174 9260 ft 276 kts 268°
2026-04-20 18:06 45.65551 9.24362 9519 ft 276 kts 268°
2026-04-20 18:06 45.65436 9.21614 9904 ft 278 kts 268°
2026-04-20 18:07 45.65319 9.18852 10271 ft 279 kts 268°
2026-04-20 18:07 45.65200 9.16083 10644 ft 279 kts 268°
2026-04-20 18:07 45.65081 9.13309 11017 ft 280 kts 268°
2026-04-20 18:07 45.64960 9.10456 11183 ft 299 kts 268°
2026-04-20 18:08 45.64828 9.07386 11370 ft 320 kts 268°
2026-04-20 18:08 45.64717 9.04125 11712 ft 333 kts 273°
2026-04-20 18:08 45.65204 9.00882 12303 ft 337 kts 294°
2026-04-20 18:08 45.66349 8.97957 13063 ft 337 kts 302°
2026-04-20 18:09 45.67607 8.95128 13870 ft 338 kts 302°
2026-04-20 18:09 45.68884 8.92298 14591 ft 339 kts 302°
2026-04-20 18:09 45.70162 8.89460 15302 ft 341 kts 302°
2026-04-20 18:09 45.71442 8.86599 16029 ft 342 kts 302°
2026-04-20 18:10 45.72724 8.83717 16736 ft 344 kts 301°
2026-04-20 18:10 45.73991 8.80851 17442 ft 346 kts 301°
2026-04-20 18:10 45.75280 8.77926 18145 ft 348 kts 301°
2026-04-20 18:10 45.76570 8.74989 18755 ft 350 kts 301°
2026-04-20 18:11 45.77871 8.72022 19307 ft 353 kts 301°
2026-04-20 18:11 45.79183 8.69026 19851 ft 356 kts 301°
2026-04-20 18:11 45.80502 8.66009 20403 ft 359 kts 301°
2026-04-20 18:11 45.81835 8.62958 20951 ft 362 kts 301°
2026-04-20 18:12 45.83177 8.59885 21493 ft 365 kts 301°
2026-04-20 18:12 45.84530 8.56779 22029 ft 368 kts 301°
2026-04-20 18:12 45.85887 8.53664 22618 ft 369 kts 301°
2026-04-20 18:12 45.87250 8.50530 23135 ft 371 kts 301°
2026-04-20 18:13 45.88623 8.47370 23585 ft 374 kts 301°
2026-04-20 18:13 45.90002 8.44191 24044 ft 376 kts 301°
2026-04-20 18:13 45.91385 8.41003 24509 ft 377 kts 300°
2026-04-20 18:13 45.92783 8.37775 24944 ft 382 kts 300°
2026-04-20 18:14 45.94185 8.34532 25420 ft 383 kts 300°
2026-04-20 18:14 45.95590 8.31278 25953 ft 382 kts 300°
2026-04-20 18:14 45.96981 8.28054 26494 ft 380 kts 300°
2026-04-20 18:14 45.98358 8.24850 26762 ft 385 kts 300°
2026-04-20 18:15 45.99778 8.21552 27003 ft 390 kts 300°
2026-04-20 18:15 46.01206 8.18232 27533 ft 389 kts 300°
2026-04-20 18:15 46.02626 8.14926 28003 ft 389 kts 300°
2026-04-20 18:15 46.04049 8.11605 28299 ft 391 kts 300°
2026-04-20 18:16 46.05482 8.08256 28649 ft 394 kts 300°
2026-04-20 18:16 46.06920 8.04896 28979 ft 395 kts 299°
2026-04-20 18:16 46.08364 8.01520 29280 ft 396 kts 299°
2026-04-20 18:16 46.09808 7.98139 29636 ft 397 kts 299°
2026-04-20 18:17 46.11253 7.94754 30079 ft 397 kts 299°
2026-04-20 18:17 46.12689 7.91388 30613 ft 391 kts 300°
2026-04-20 18:17 46.14106 7.88060 31028 ft 389 kts 299°
2026-04-20 18:17 46.15522 7.84730 31261 ft 392 kts 300°
2026-04-20 18:18 46.16949 7.81369 31534 ft 393 kts 299°
2026-04-20 18:18 46.18374 7.78006 31854 ft 393 kts 300°
2026-04-20 18:18 46.19803 7.74631 32125 ft 392 kts 299°
2026-04-20 18:18 46.21223 7.71273 32549 ft 390 kts 299°
2026-04-20 18:19 46.22633 7.67939 32885 ft 389 kts 300°
2026-04-20 18:19 46.24045 7.64594 33151 ft 390 kts 299°
2026-04-20 18:19 46.25454 7.61252 33547 ft 388 kts 300°
2026-04-20 18:19 46.26853 7.57929 33964 ft 387 kts 300°
2026-04-20 18:20 46.28250 7.54608 34227 ft 387 kts 300°
2026-04-20 18:20 46.29651 7.51271 34434 ft 388 kts 300°
2026-04-20 18:20 46.31052 7.47930 34629 ft 387 kts 300°
2026-04-20 18:20 46.32433 7.44635 34794 ft 389 kts 300°
2026-04-20 18:21 46.33854 7.41237 35013 ft 390 kts 299°
2026-04-20 18:21 46.35255 7.37884 35269 ft 389 kts 300°
2026-04-20 18:21 46.36660 7.34521 35460 ft 391 kts 300°
2026-04-20 18:21 46.38047 7.31194 35641 ft 391 kts 300°
2026-04-20 18:22 46.39471 7.27774 35871 ft 392 kts 300°
2026-04-20 18:22 46.40879 7.24391 36082 ft 392 kts 300°
2026-04-20 18:22 46.42284 7.21007 36240 ft 391 kts 300°
2026-04-20 18:22 46.43688 7.17624 36423 ft 392 kts 300°
2026-04-20 18:23 46.45076 7.14277 36550 ft 393 kts 300°
2026-04-20 18:23 46.46486 7.10872 36731 ft 394 kts 300°
2026-04-20 18:23 46.47896 7.07461 36924 ft 394 kts 300°
2026-04-20 18:23 46.49306 7.04047 37095 ft 395 kts 300°
2026-04-20 18:24 46.52139 6.97172 37379 ft 398 kts 300°
2026-04-20 18:24 46.53555 6.93728 37612 ft 397 kts 300°
2026-04-20 18:24 46.54975 6.90274 37770 ft 398 kts 300°
2026-04-20 18:25 46.56390 6.86825 37912 ft 397 kts 300°
2026-04-20 18:25 46.57796 6.83396 37990 ft 393 kts 300°
2026-04-20 18:25 46.60596 6.76552 38021 ft 394 kts 299°
2026-04-20 18:26 46.63401 6.69674 38034 ft 399 kts 299°
2026-04-20 18:26 46.66235 6.62710 38023 ft 403 kts 299°
2026-04-20 18:27 46.69094 6.55670 38023 ft 404 kts 299°
2026-04-20 18:27 46.71917 6.48700 38005 ft 395 kts 299°
2026-04-20 18:28 46.74692 6.41830 38014 ft 392 kts 299°
2026-04-20 18:28 46.77445 6.34995 38032 ft 391 kts 299°
2026-04-20 18:29 46.80195 6.28152 38060 ft 391 kts 299°
2026-04-20 18:29 46.82953 6.21272 38039 ft 393 kts 299°
2026-04-20 18:30 46.85708 6.14380 38040 ft 394 kts 299°
2026-04-20 18:30 46.88471 6.07453 38040 ft 396 kts 299°
2026-04-20 18:31 46.91242 6.00491 38041 ft 398 kts 299°
2026-04-20 18:31 46.94171 5.93580 38025 ft 400 kts 308°
2026-04-20 18:32 46.98231 5.87974 38040 ft 406 kts 321°
2026-04-20 18:32 47.03192 5.83858 38058 ft 410 kts 328°
2026-04-20 18:33 47.08269 5.80040 38042 ft 411 kts 328°
2026-04-20 18:33 47.13340 5.76183 38041 ft 410 kts 328°
2026-04-20 18:34 47.18379 5.72303 38032 ft 409 kts 328°
2026-04-20 18:34 47.23406 5.68409 38050 ft 408 kts 328°
2026-04-20 18:35 47.28413 5.64521 38053 ft 407 kts 328°
2026-04-20 18:35 47.33410 5.60633 38058 ft 407 kts 328°
2026-04-20 18:36 47.38432 5.56717 38052 ft 406 kts 328°
2026-04-20 18:36 47.43408 5.52829 38057 ft 405 kts 328°
2026-04-20 18:37 47.48390 5.48928 38075 ft 405 kts 328°
2026-04-20 18:37 47.52937 5.44177 38077 ft 399 kts 314°
2026-04-20 18:38 47.56449 5.37954 38079 ft 396 kts 304°
2026-04-20 18:38 47.59711 5.31316 38082 ft 398 kts 304°
2026-04-20 18:39 47.62961 5.24701 38077 ft 399 kts 304°
2026-04-20 18:39 47.66257 5.18016 38077 ft 400 kts 304°
2026-04-20 18:40 47.69537 5.11368 38101 ft 402 kts 305°
2026-04-20 18:40 47.72835 5.04673 38075 ft 403 kts 304°
2026-04-20 18:41 47.76159 4.97906 38087 ft 404 kts 304°
2026-04-20 18:41 47.79467 4.91159 38084 ft 405 kts 304°
2026-04-20 18:42 47.82778 4.84387 38087 ft 405 kts 304°
2026-04-20 18:42 47.86083 4.77610 38091 ft 405 kts 304°
2026-04-20 18:43 47.89383 4.70827 38093 ft 404 kts 304°
2026-04-20 18:43 47.92673 4.64046 38095 ft 404 kts 304°
2026-04-20 18:44 47.95960 4.57257 38102 ft 403 kts 304°
2026-04-20 18:44 47.99234 4.50477 38098 ft 403 kts 304°
2026-04-20 18:45 48.02522 4.43649 38104 ft 403 kts 304°
2026-04-20 18:45 48.05784 4.36861 38105 ft 402 kts 304°
2026-04-20 18:46 48.09040 4.30066 38112 ft 402 kts 304°
2026-04-20 18:46 48.12291 4.23265 38101 ft 402 kts 304°
2026-04-20 18:47 48.15532 4.16469 38120 ft 402 kts 304°
2026-04-20 18:47 48.18780 4.09639 38106 ft 402 kts 304°
2026-04-20 18:48 48.22022 4.02808 38104 ft 403 kts 304°
2026-04-20 18:48 48.25295 3.95984 38100 ft 403 kts 307°
2026-04-20 18:49 48.29125 3.89773 38101 ft 405 kts 312°
2026-04-20 18:49 48.33025 3.83752 38106 ft 405 kts 312°
2026-04-20 18:50 48.36958 3.77618 38107 ft 405 kts 311°
2026-04-20 18:50 48.40847 3.71485 38126 ft 406 kts 312°
2026-04-20 18:51 48.44734 3.65324 38129 ft 407 kts 312°
2026-04-20 18:51 48.48612 3.59158 38127 ft 407 kts 312°
2026-04-20 18:52 48.52497 3.52967 38130 ft 407 kts 312°
2026-04-20 18:52 48.56389 3.46751 38131 ft 407 kts 311°
2026-04-20 18:53 48.60268 3.40540 38159 ft 407 kts 311°
2026-04-20 18:53 48.64177 3.34268 38144 ft 407 kts 312°
2026-04-20 18:54 48.68039 3.28054 38132 ft 407 kts 312°
2026-04-20 18:54 48.71917 3.21801 38133 ft 407 kts 312°
2026-04-20 18:55 48.75789 3.15540 38147 ft 407 kts 312°
2026-04-20 18:55 48.79661 3.09267 38150 ft 407 kts 312°
2026-04-20 18:56 48.83553 3.03033 38132 ft 407 kts 315°
2026-04-20 18:56 48.87341 2.98777 38153 ft 410 kts 327°
2026-04-20 18:57 48.92307 2.94491 38160 ft 410 kts 327°
2026-04-20 18:57 48.97274 2.90199 38154 ft 410 kts 327°
2026-04-20 18:58 49.02228 2.85869 38157 ft 410 kts 327°
2026-04-20 18:58 49.07174 2.81515 38170 ft 411 kts 327°
2026-04-20 18:59 49.12089 2.77176 38161 ft 411 kts 327°
2026-04-20 18:59 49.17039 2.72795 38165 ft 411 kts 327°
2026-04-20 19:00 49.21992 2.68402 38175 ft 411 kts 327°
2026-04-20 19:00 49.26938 2.64004 38169 ft 411 kts 327°
2026-04-20 19:01 49.31885 2.59596 38169 ft 411 kts 327°
2026-04-20 19:01 49.36832 2.55177 38183 ft 411 kts 327°
2026-04-20 19:02 49.41779 2.50747 38181 ft 411 kts 327°
2026-04-20 19:02 49.46725 2.46308 38189 ft 411 kts 327°
2026-04-20 19:03 49.51731 2.42039 38182 ft 414 kts 334°
2026-04-20 19:03 49.57199 2.39366 38184 ft 416 kts 341°
2026-04-20 19:04 49.62764 2.36912 38187 ft 416 kts 341°
2026-04-20 19:04 49.68322 2.34421 38195 ft 416 kts 340°
2026-04-20 19:05 49.73879 2.31897 38215 ft 416 kts 340°
2026-04-20 19:05 49.79434 2.29359 38208 ft 417 kts 340°
2026-04-20 19:06 49.85001 2.26809 38198 ft 417 kts 340°
2026-04-20 19:06 49.90567 2.24253 38200 ft 417 kts 340°
2026-04-20 19:07 49.96129 2.21694 38231 ft 417 kts 340°
2026-04-20 19:07 50.01699 2.19125 38217 ft 417 kts 340°
2026-04-20 19:08 50.10022 2.15275 38220 ft 417 kts 340°
2026-04-20 19:09 50.15589 2.12691 38221 ft 417 kts 340°
2026-04-20 19:09 50.21155 2.10102 38224 ft 417 kts 340°
2026-04-20 19:10 50.26724 2.07504 38224 ft 418 kts 340°
2026-04-20 19:10 50.32293 2.04901 38225 ft 418 kts 340°
2026-04-20 19:11 50.37623 2.01484 38232 ft 412 kts 327°
2026-04-20 19:11 50.42140 1.96045 38247 ft 410 kts 317°
2026-04-20 19:12 50.46416 1.90122 38238 ft 411 kts 316°
2026-04-20 19:12 50.50687 1.84234 38229 ft 412 kts 317°
2026-04-20 19:13 50.55012 1.78302 38240 ft 413 kts 317°
2026-04-20 19:13 50.59348 1.72350 38241 ft 414 kts 317°
2026-04-20 19:14 50.63691 1.66375 38266 ft 415 kts 317°
2026-04-20 19:14 50.68039 1.60374 38251 ft 416 kts 317°
2026-04-20 19:15 50.72394 1.54346 38247 ft 417 kts 317°
2026-04-20 19:15 50.76762 1.48287 38246 ft 418 kts 317°
2026-04-20 19:16 50.81129 1.42217 38246 ft 418 kts 317°
2026-04-20 19:16 50.85496 1.36137 38249 ft 418 kts 317°
2026-04-20 19:17 50.89863 1.30040 38262 ft 419 kts 317°
2026-04-20 19:17 50.94199 1.23970 38263 ft 419 kts 316°
2026-04-20 19:18 50.98588 1.17808 38263 ft 419 kts 316°
2026-04-20 19:18 51.02926 1.11705 38265 ft 419 kts 316°
2026-04-20 19:19 51.07334 1.05635 38260 ft 420 kts 321°
2026-04-20 19:19 51.12107 1.00280 38265 ft 421 kts 323°
2026-04-20 19:20 51.16969 0.95028 38267 ft 421 kts 323°
2026-04-20 19:20 51.21805 0.89733 38291 ft 421 kts 323°
2026-04-20 19:21 51.26617 0.84397 38308 ft 421 kts 323°
2026-04-20 19:21 51.31414 0.79044 38318 ft 421 kts 323°
2026-04-20 19:22 51.36215 0.73668 38269 ft 422 kts 323°
2026-04-20 19:22 51.40991 0.68308 38269 ft 422 kts 323°
2026-04-20 19:23 51.45808 0.62888 38270 ft 423 kts 323°
2026-04-20 19:23 51.50636 0.57444 38268 ft 425 kts 323°
2026-04-20 19:24 51.55470 0.51976 38271 ft 426 kts 323°
2026-04-20 19:24 51.60321 0.46476 38271 ft 427 kts 323°
2026-04-20 19:25 51.65172 0.40961 38271 ft 428 kts 323°
2026-04-20 19:25 51.70034 0.35419 38285 ft 428 kts 323°
2026-04-20 19:26 51.74907 0.29849 38291 ft 428 kts 323°
2026-04-20 19:26 51.79761 0.24285 38292 ft 428 kts 323°
2026-04-20 19:27 51.84613 0.18709 38301 ft 428 kts 323°
2026-04-20 19:27 51.89458 0.13125 38294 ft 428 kts 323°
2026-04-20 19:28 51.94309 0.07519 38294 ft 427 kts 323°
2026-04-20 19:28 51.99143 0.01918 38292 ft 427 kts 323°
2026-04-20 19:29 52.04043 -0.03535 38286 ft 428 kts 328°
2026-04-20 19:29 52.09290 -0.08117 38292 ft 428 kts 331°
2026-04-20 19:30 52.14540 -0.12586 38299 ft 429 kts 330°
2026-04-20 19:30 52.19804 -0.17177 38296 ft 429 kts 330°
2026-04-20 19:31 52.25055 -0.21814 38299 ft 430 kts 330°
2026-04-20 19:31 52.30313 -0.26466 38310 ft 431 kts 330°
2026-04-20 19:32 52.35586 -0.31139 38308 ft 432 kts 330°
2026-04-20 19:32 52.40887 -0.35847 38300 ft 433 kts 330°
2026-04-20 19:33 52.46193 -0.40574 38298 ft 434 kts 330°
2026-04-20 19:33 52.51504 -0.45319 38294 ft 435 kts 330°
2026-04-20 19:34 52.56779 -0.50045 38296 ft 436 kts 330°
2026-04-20 19:34 52.62103 -0.54829 38296 ft 437 kts 330°
2026-04-20 19:35 52.67440 -0.59637 38291 ft 437 kts 330°
2026-04-20 19:35 52.72765 -0.64449 38298 ft 437 kts 330°
2026-04-20 19:36 52.78092 -0.69276 38327 ft 436 kts 330°
2026-04-20 19:36 52.83410 -0.74108 38321 ft 436 kts 330°
2026-04-20 19:37 52.88733 -0.78958 38325 ft 436 kts 330°
2026-04-20 19:37 52.94047 -0.83815 38320 ft 436 kts 330°
2026-04-20 19:38 52.99357 -0.88680 38325 ft 435 kts 330°
2026-04-20 19:38 53.04658 -0.93546 38323 ft 435 kts 330°
2026-04-20 19:39 53.09960 -0.98420 38337 ft 435 kts 330°
2026-04-20 19:39 53.15261 -1.03308 38334 ft 435 kts 330°
2026-04-20 19:40 53.20523 -1.08175 38343 ft 435 kts 330°
2026-04-20 19:40 53.25819 -1.13087 38355 ft 436 kts 330°
2026-04-20 19:41 53.31123 -1.18022 38343 ft 436 kts 330°
2026-04-20 19:41 53.36434 -1.22977 38350 ft 437 kts 330°
2026-04-20 19:42 53.41753 -1.27952 38347 ft 438 kts 330°
2026-04-20 19:42 53.47061 -1.32950 38357 ft 438 kts 330°
2026-04-20 19:43 53.52381 -1.37982 38361 ft 439 kts 330°
2026-04-20 19:43 53.57701 -1.43029 38357 ft 439 kts 330°
2026-04-20 19:44 53.63025 -1.48093 38356 ft 439 kts 330°
2026-04-20 19:44 53.68314 -1.53136 38349 ft 439 kts 330°
2026-04-20 19:45 53.73593 -1.58341 38344 ft 439 kts 324°
2026-04-20 19:45 53.78207 -1.65067 38349 ft 438 kts 317°
2026-04-20 19:46 53.82668 -1.72077 38349 ft 438 kts 317°
2026-04-20 19:46 53.87157 -1.79056 38346 ft 438 kts 317°
2026-04-20 19:47 53.91658 -1.86008 38351 ft 438 kts 317°
2026-04-20 19:47 53.96161 -1.92977 38365 ft 438 kts 317°
2026-04-20 19:48 54.00655 -1.99956 38365 ft 438 kts 317°
2026-04-20 19:48 54.04672 -2.05159 38380 ft 438 kts 327°
2026-04-20 19:49 54.09850 -2.10643 38369 ft 438 kts 328°
2026-04-20 19:49 54.12441 -2.13366 38191 ft 441 kts 328°
2026-04-20 19:49 54.15060 -2.16146 37778 ft 441 kts 327°
2026-04-20 19:49 54.17639 -2.18909 37361 ft 436 kts 327°
2026-04-20 19:50 54.20191 -2.21665 36973 ft 432 kts 327°
2026-04-20 19:50 54.22724 -2.24416 36585 ft 428 kts 327°
2026-04-20 19:50 54.25231 -2.27147 36201 ft 425 kts 327°
2026-04-20 19:50 54.27712 -2.29856 35804 ft 422 kts 327°
2026-04-20 19:51 54.30173 -2.32546 35415 ft 419 kts 327°
2026-04-20 19:51 54.32588 -2.35190 35014 ft 416 kts 327°
2026-04-20 19:51 54.35024 -2.37858 34631 ft 414 kts 327°
2026-04-20 19:51 54.37444 -2.40514 34194 ft 412 kts 327°
2026-04-20 19:52 54.39845 -2.43152 33786 ft 409 kts 327°
2026-04-20 19:52 54.42237 -2.45782 33388 ft 405 kts 327°
2026-04-20 19:52 54.44597 -2.48381 33021 ft 401 kts 327°
2026-04-20 19:52 54.46937 -2.50963 32649 ft 398 kts 326°
2026-04-20 19:53 54.49260 -2.53529 32274 ft 395 kts 327°
2026-04-20 19:53 54.51561 -2.56075 31914 ft 392 kts 327°
2026-04-20 19:53 54.53841 -2.58600 31548 ft 389 kts 326°
2026-04-20 19:53 54.56102 -2.61108 31205 ft 385 kts 326°
2026-04-20 19:54 54.58350 -2.63605 30861 ft 383 kts 326°
2026-04-20 19:54 54.60575 -2.66080 30526 ft 380 kts 326°
2026-04-20 19:54 54.62791 -2.68550 30123 ft 377 kts 326°
2026-04-20 19:54 54.64980 -2.70990 29794 ft 372 kts 326°
2026-04-20 19:55 54.67145 -2.73406 29432 ft 368 kts 325°
2026-04-20 19:55 54.69277 -2.75789 29097 ft 363 kts 325°
2026-04-20 19:55 54.71433 -2.78031 28756 ft 360 kts 332°
2026-04-20 19:55 54.73712 -2.79759 28437 ft 357 kts 337°
2026-04-20 19:56 54.75987 -2.81329 28075 ft 354 kts 337°
2026-04-20 19:56 54.78264 -2.82889 27742 ft 351 kts 337°
2026-04-20 19:56 54.80519 -2.84461 27409 ft 348 kts 337°
2026-04-20 19:56 54.82752 -2.86043 27069 ft 345 kts 337°
2026-04-20 19:57 54.84967 -2.87630 26732 ft 343 kts 337°
2026-04-20 19:57 54.87160 -2.89206 26403 ft 341 kts 337°
2026-04-20 19:57 54.89355 -2.90790 25950 ft 343 kts 337°
2026-04-20 19:57 54.91567 -2.92392 25577 ft 345 kts 337°
2026-04-20 19:58 54.93770 -2.93990 25309 ft 342 kts 337°
2026-04-20 19:58 54.95965 -2.95583 25005 ft 340 kts 337°
2026-04-20 19:58 54.98141 -2.97166 24711 ft 340 kts 338°
2026-04-20 19:58 55.00337 -2.98764 24434 ft 343 kts 338°
2026-04-20 19:59 55.02551 -3.00376 24156 ft 347 kts 338°
2026-04-20 19:59 55.04774 -3.01997 23850 ft 345 kts 338°
2026-04-20 19:59 55.06986 -3.03613 23507 ft 344 kts 338°
2026-04-20 19:59 55.09185 -3.05220 23164 ft 342 kts 338°
2026-04-20 20:00 55.11381 -3.06827 22828 ft 345 kts 339°
2026-04-20 20:00 55.13637 -3.08480 22525 ft 356 kts 339°
2026-04-20 20:00 55.15901 -3.10139 22199 ft 357 kts 339°
2026-04-20 20:00 55.18191 -3.11819 21873 ft 357 kts 339°
2026-04-20 20:01 55.20488 -3.13503 21553 ft 358 kts 338°
2026-04-20 20:01 55.22786 -3.15190 21223 ft 358 kts 338°
2026-04-20 20:01 55.25083 -3.16880 20896 ft 359 kts 339°
2026-04-20 20:01 55.27393 -3.18580 20510 ft 360 kts 339°
2026-04-20 20:02 55.29738 -3.20089 20108 ft 358 kts 351°
2026-04-20 20:02 55.32199 -3.20227 19747 ft 351 kts
2026-04-20 20:02 55.34628 -3.19850 19369 ft 349 kts
2026-04-20 20:02 55.37033 -3.19430 19006 ft 347 kts
2026-04-20 20:03 55.39428 -3.19012 18628 ft 345 kts
2026-04-20 20:03 55.41770 -3.18615 18393 ft 338 kts
2026-04-20 20:03 55.44089 -3.18235 18404 ft 333 kts
2026-04-20 20:03 55.46395 -3.17862 18399 ft 334 kts
2026-04-20 20:04 55.48720 -3.17509 18396 ft 339 kts
2026-04-20 20:04 55.51084 -3.17288 18401 ft 339 kts
2026-04-20 20:04 55.53428 -3.16887 18391 ft 339 kts
2026-04-20 20:04 55.55770 -3.16454 18391 ft 338 kts
2026-04-20 20:05 55.58114 -3.16036 18399 ft 338 kts
2026-04-20 20:05 55.60454 -3.15642 18389 ft 338 kts
2026-04-20 20:05 55.62795 -3.15264 18389 ft 337 kts
2026-04-20 20:05 55.65128 -3.14896 18397 ft 337 kts
2026-04-20 20:06 55.67470 -3.14570 18389 ft 338 kts
2026-04-20 20:06 55.69815 -3.14297 18339 ft 338 kts
2026-04-20 20:06 55.72145 -3.13845 18027 ft 333 kts 14°
2026-04-20 20:06 55.74266 -3.12426 17568 ft 321 kts 36°
2026-04-20 20:07 55.75894 -3.09909 17134 ft 310 kts 54°
2026-04-20 20:07 55.76964 -3.06676 16717 ft 301 kts 72°
2026-04-20 20:07 55.77395 -3.03097 16284 ft 294 kts 89°
2026-04-20 20:07 55.77171 -2.99531 15844 ft 290 kts 107°
2026-04-20 20:08 55.76330 -2.96300 15414 ft 288 kts 124°
2026-04-20 20:08 55.74963 -2.93706 14963 ft 289 kts 141°
2026-04-20 20:08 55.73213 -2.91945 14509 ft 292 kts 156°
2026-04-20 20:08 55.71240 -2.91059 14011 ft 296 kts 174°
2026-04-20 20:09 55.69175 -2.91201 13513 ft 297 kts 182°
2026-04-20 20:09 55.67122 -2.91531 12997 ft 297 kts 182°
2026-04-20 20:09 55.65067 -2.91870 12485 ft 295 kts 182°
2026-04-20 20:09 55.63034 -2.92196 11986 ft 292 kts 182°
2026-04-20 20:10 55.61022 -2.92524 11496 ft 289 kts 185°
2026-04-20 20:10 55.59121 -2.93634 11072 ft 290 kts 207°
2026-04-20 20:10 55.57526 -2.95830 10690 ft 293 kts 224°
2026-04-20 20:10 55.56330 -2.98733 10288 ft 295 kts 241°
2026-04-20 20:11 55.55661 -3.02155 9853 ft 296 kts 259°
2026-04-20 20:11 55.55644 -3.05761 9415 ft 294 kts 280°
2026-04-20 20:11 55.56301 -3.09121 9040 ft 286 kts 300°
2026-04-20 20:11 55.57503 -3.11831 8719 ft 276 kts 320°
2026-04-20 20:12 55.59059 -3.13705 8454 ft 265 kts 336°
2026-04-20 20:12 55.60697 -3.14949 8398 ft 250 kts 338°
2026-04-20 20:12 55.62160 -3.16633 8413 ft 254 kts 320°
2026-04-20 20:13 55.63981 -3.21922 8393 ft 256 kts 284°
2026-04-20 20:13 55.64331 -3.25009 8406 ft 255 kts 280°
2026-04-20 20:13 55.64627 -3.28080 8384 ft 249 kts 279°
2026-04-20 20:13 55.64901 -3.30993 8390 ft 236 kts 279°
2026-04-20 20:14 55.65161 -3.33804 8395 ft 220 kts 279°
2026-04-20 20:14 55.65398 -3.36379 8380 ft 213 kts 279°
2026-04-20 20:14 55.65639 -3.38953 8383 ft 212 kts 279°
2026-04-20 20:14 55.65881 -3.41529 8397 ft 212 kts 279°
2026-04-20 20:15 55.66123 -3.44103 8380 ft 213 kts 279°
2026-04-20 20:15 55.66368 -3.46720 8178 ft 217 kts 279°
2026-04-20 20:15 55.66613 -3.49363 7986 ft 216 kts 279°
2026-04-20 20:15 55.66853 -3.51952 7768 ft 211 kts 279°
2026-04-20 20:16 55.67088 -3.54495 7555 ft 207 kts 279°
2026-04-20 20:16 55.67316 -3.56993 7335 ft 205 kts 279°
2026-04-20 20:16 55.67541 -3.59479 7144 ft 205 kts 279°
2026-04-20 20:16 55.67767 -3.62001 6945 ft 208 kts 279°
2026-04-20 20:17 55.67994 -3.64553 6661 ft 212 kts 279°
2026-04-20 20:17 55.68223 -3.67138 6313 ft 212 kts 279°
2026-04-20 20:17 55.68450 -3.69713 5972 ft 211 kts 279°
2026-04-20 20:17 55.68676 -3.72272 5631 ft 210 kts 279°
2026-04-20 20:18 55.69061 -3.74749 5280 ft 208 kts 297°
2026-04-20 20:18 55.69894 -3.76794 5017 ft 200 kts 320°
2026-04-20 20:18 55.71014 -3.78216 5007 ft 199 kts 330°
2026-04-20 20:18 55.72160 -3.79569 4833 ft 202 kts 329°
2026-04-20 20:19 55.73331 -3.80968 4678 ft 198 kts 329°
2026-04-20 20:19 55.74435 -3.82314 4499 ft 193 kts 329°
2026-04-20 20:19 55.75541 -3.83663 4340 ft 193 kts 329°
2026-04-20 20:19 55.76692 -3.84869 4161 ft 191 kts 344°
2026-04-20 20:20 55.77958 -3.85260 4046 ft 179 kts
2026-04-20 20:20 55.79112 -3.84757 3992 ft 167 kts 27°
2026-04-20 20:20 55.80165 -3.83908 3988 ft 166 kts 29°
2026-04-20 20:20 55.81199 -3.83046 3971 ft 162 kts 30°
2026-04-20 20:21 55.82073 -3.81828 3717 ft 162 kts 56°
2026-04-20 20:21 55.82527 -3.80111 3636 ft 150 kts 75°
2026-04-20 20:21 55.82804 -3.78320 3549 ft 150 kts 76°
2026-04-20 20:21 55.83087 -3.76537 3541 ft 148 kts 75°
2026-04-20 20:22 55.83378 -3.74782 3552 ft 151 kts 74°
2026-04-20 20:22 55.83680 -3.72980 3586 ft 153 kts 74°
2026-04-20 20:22 55.83998 -3.71189 3658 ft 152 kts 73°
2026-04-20 20:22 55.84338 -3.69404 3692 ft 154 kts 70°
2026-04-20 20:23 55.84763 -3.67610 3599 ft 160 kts 66°
2026-04-20 20:23 55.85265 -3.65818 3430 ft 166 kts 62°
2026-04-20 20:23 55.85850 -3.64081 3236 ft 160 kts 61°
2026-04-20 20:23 55.86427 -3.62457 3060 ft 149 kts 60°
2026-04-20 20:24 55.86990 -3.60962 2876 ft 145 kts 59°
2026-04-20 20:24 55.87561 -3.59487 2745 ft 144 kts 60°
2026-04-20 20:24 55.88111 -3.57966 2616 ft 147 kts 61°
2026-04-20 20:24 55.88619 -3.56448 2578 ft 138 kts 62°
2026-04-20 20:25 55.89090 -3.54979 2455 ft 133 kts 64°
2026-04-20 20:25 55.89556 -3.53543 2321 ft 137 kts 63°
2026-04-20 20:25 55.90025 -3.52100 2087 ft 134 kts 63°
2026-04-20 20:25 55.90492 -3.50705 1863 ft 129 kts 62°
2026-04-20 20:26 55.90956 -3.49340 1654 ft 129 kts 62°
2026-04-20 20:26 55.91407 -3.47958 1460 ft 130 kts 62°
2026-04-20 20:26 55.91864 -3.46550 1246 ft 133 kts 61°
2026-04-20 20:26 55.92340 -3.45115 1044 ft 135 kts 60°
2026-04-20 20:27 55.92787 -3.43788 863 ft 132 kts 59°
2026-04-20 20:27 55.93251 -3.42387 665 ft 129 kts 59°
2026-04-20 20:27 55.93642 -3.41261 464 ft 127 kts 58°
2026-04-20 20:27 55.94107 -3.39903 291 ft 127 kts 59°
2026-04-20 20:28 55.94413 -3.38998 208 ft 130 kts 59°
2026-04-20 20:28 55.95014 -3.37209 115 ft 121 kts 59°
2026-04-20 20:28 55.95325 -3.36290 109 ft 61 kts 59°
2026-04-20 20:28 55.95485 -3.35816 112 ft 30 kts 59°
2026-04-20 20:29 55.95560 -3.35594 112 ft 11 kts 64°
2026-04-20 20:29 55.95532 -3.35477 113 ft 13 kts 144°
2026-04-20 20:29 55.95459 -3.35407 115 ft 7 kts 173°
2026-04-20 20:29 55.95417 -3.35450 114 ft 8 kts 231°
2026-04-20 20:30 55.95370 -3.35583 115 ft 14 kts 238°
2026-04-20 20:30 55.95319 -3.35733 111 ft 14 kts 239°
2026-04-20 20:30 55.95294 -3.35808 113 ft 0 kts 239°
2026-04-20 20:30 55.95293 -3.35810 114 ft 1 kts 239°
2026-04-20 20:31 55.95283 -3.35840 115 ft 5 kts 239°
2026-04-20 20:31 55.95263 -3.35900 115 ft 6 kts 239°
2026-04-20 20:31 55.95242 -3.35962 115 ft 6 kts 239°
2026-04-20 20:31 55.95221 -3.36023 115 ft 6 kts 239°
2026-04-20 20:32 55.95200 -3.36084 115 ft 6 kts 239°
2026-04-20 20:32 55.95180 -3.36144 115 ft 6 kts 239°
2026-04-20 20:32 55.95153 -3.36222 115 ft 9 kts 238°
2026-04-20 20:32 55.95113 -3.36341 114 ft 13 kts 239°
2026-04-20 20:33 55.95059 -3.36501 114 ft 17 kts 239°
2026-04-20 20:33 55.94994 -3.36692 113 ft 16 kts 239°
2026-04-20 20:33 55.94953 -3.36813 113 ft 8 kts 230°
2026-04-20 20:33 55.94899 -3.36808 114 ft 8 kts 150°
2026-04-20 20:34 55.94865 -3.36781 113 ft 8 kts 169°
2026-04-20 20:34 55.94792 -3.36777 115 ft 8 kts 178°
2026-04-20 20:34 55.94744 -3.36740 112 ft 7 kts 167°
2026-04-20 20:34 55.94694 -3.36736 115 ft 7 kts 178°
2026-04-20 20:35 55.94660 -3.36734 115 ft 7 kts 179°
2026-04-20 20:35 55.94612 -3.36733 115 ft 7 kts 179°
2026-04-20 20:35 55.94576 -3.36706 114 ft 6 kts 122°
2026-04-20 20:35 55.94571 -3.36640 115 ft 0 kts 88°
2026-04-20 20:36 55.94571 -3.36635 115 ft 1 kts 89°
2026-04-20 20:36 55.94571 -3.36629 115 ft 0 kts 89°